This demonstration page uses our WeatherBlox Daily Observations layout. Learn more.

Hourly Observations for January 2, 2021

Temp ( °F °C ) Dew Point ( °F °C ) Humidity (%) Winds ( mph kmh ) Pressure ( in mb ) Visibility ( mi km ) Precip ( " mm )
12:15 am 00:15 Cloudy 32 0 32 0 100 100 Calm 29.98 1015 7 11.26538 0 0
12:35 am 00:35 Cloudy with Mist and Fog 32 0 32 0 100 100 Calm 29.97 1015 2 3.21868 0 0
12:55 am 00:55 Cloudy with Mist and Fog 32 0 32 0 100 100 Calm 29.96 1015 2.5 4.02335 0 0
1:15 am 01:15 Cloudy with Mist and Fog 32 0 32 0 100 100 Calm 29.95 1014 2.5 4.02335 0 0
1:35 am 01:35 Cloudy with Mist and Fog 32 0 32 0 100 100 Calm 29.95 1014 4 6.43736 0 0
1:55 am 01:55 Cloudy with Mist and Fog 32 0 32 0 100 100 Calm 29.93 1014 4 6.43736 0 0
2:15 am 02:15 Cloudy with Mist and Fog 32 0 32 0 100 100 Calm 29.91 1013 4 6.43736 0 0
2:35 am 02:35 Cloudy with Mist and Fog 32 0 32 0 100 100 Calm 29.91 1013 2.5 4.02335 0 0
2:55 am 02:55 Cloudy with Freezing Fog 32 0 32 0 100 100 Calm 29.89 1012 0.5 0.80467 0 0
3:15 am 03:15 Cloudy with Freezing Fog 32 0 32 0 100 100 Calm 29.89 1012 0.5 0.80467 0 0
3:35 am 03:35 Cloudy with Freezing Fog 32 0 32 0 100 100 Calm 29.88 1012 0.5 0.80467 0 0
3:55 am 03:55 Cloudy with Freezing Fog 32 0 32 0 100 100 Calm 29.87 1012 0.5 0.80467 0 0
4:15 am 04:15 Cloudy with Freezing Fog 32 0 32 0 100 100 Calm 29.86 1011 0.5 0.80467 0 0
4:35 am 04:35 Cloudy with Fog 32 0 32 0 100 100 Calm 29.86 1011 0.25 0.402335 0 0
4:55 am 04:55 Cloudy with Fog 32 0 32 0 100 100 Calm 29.87 1012 0.25 0.402335 0 0
5:15 am 05:15 Cloudy with Fog 32 0 32 0 100 100 Calm 29.88 1012 0.5 0.80467 0 0
5:35 am 05:35 Cloudy with Mist and Fog 32 0 32 0 100 100 NW 3 6 29.89 1012 0.75 1.207005 0 0
5:55 am 05:55 Cloudy with Mist and Fog 32 0 32 0 100 100 NW 6 9 29.91 1013 3 4.82802 0 0
6:15 am 06:15 Cloudy 32 0 32 0 100 100 Calm 29.9 1013 7 11.26538 0 0
6:35 am 06:35 Cloudy with Mist and Fog 32 0 32 0 100 100 Calm 29.91 1013 5 8.0467 0 0
6:55 am 06:55 Cloudy with Mist and Fog 32 0 32 0 100 100 Calm 29.91 1013 5 8.0467 0 0
7:15 am 07:15 Cloudy with Mist and Fog 32 0 32 0 100 100 Calm 29.92 1013 5 8.0467 0 0
7:35 am 07:35 Cloudy with Mist and Fog 32 0 32 0 100 100 WSW 3 6 29.93 1014 5 8.0467 0 0
7:55 am 07:55 Cloudy with Mist and Fog 32 0 32 0 100 100 Calm 29.94 1014 4 6.43736 0 0
8:15 am 08:15 Partly Cloudy with Mist and Fog 32 0 32 0 100 100 SSW 6 9 29.93 1014 4 6.43736 0 0
8:35 am 08:35 Sunny with Mist and Fog 34 1 34 1 100 100 Calm 29.94 1014 5 8.0467 0 0
8:55 am 08:55 Sunny 34 1 34 1 100 100 Calm 29.95 1014 7 11.26538 0 0
9:15 am 09:15 Sunny 36 2 36 2 100 100 Calm 29.96 1015 7 11.26538 0 0
9:35 am 09:35 Sunny 36 2 36 2 100 100 W 3 6 29.97 1015 10 16.0934 0 0
9:55 am 09:55 Sunny 37 3 37 3 100 100 Calm 29.97 1015 10 16.0934 0 0
10:15 am 10:15 Sunny 41 5 41 5 100 100 NNW 5 7 29.97 1015 10 16.0934 0 0
10:35 am 10:35 Sunny 43 6 43 6 100 100 NW 8 13 29.98 1015 10 16.0934 0 0
10:55 am 10:55 Sunny 46 8 43 6 87 87 NW 12 19 29.98 1015 10 16.0934 0 0
11:15 am 11:15 Sunny 50 10 41 5 71 71 NNW 14 22 29.97 1015 10 16.0934 0 0
11:35 am 11:35 Sunny 50 10 39 4 67 67 NNW 21 33 29.96 1014 10 16.0934 0 0
11:55 am 11:55 Sunny 50 10 39 4 67 67 NW 18 30 29.96 1014 10 16.0934 0 0
12:15 pm 12:15 Sunny 52 11 39 4 62 62 NNW 17 28 29.97 1015 10 16.0934 0 0
12:35 pm 12:35 Partly Cloudy 50 10 39 4 67 67 NNW 14 22 29.99 1015 10 16.0934 0 0
12:55 pm 12:55 Cloudy 52 11 39 4 62 62 NW 17 28 29.98 1015 10 16.0934 0 0
1:15 pm 13:15 Mostly Cloudy 52 11 41 5 67 67 NW 13 20 30 1016 10 16.0934 0 0
1:35 pm 13:35 Cloudy 50 10 41 5 71 71 NW 9 15 30.02 1016 10 16.0934 0 0
1:55 pm 13:55 Cloudy 50 10 39 4 67 67 N 7 11 30.03 1017 10 16.0934 0 0
2:15 pm 14:15 Cloudy 50 10 41 5 71 71 NNW 6 9 30.03 1017 10 16.0934 0 0
2:35 pm 14:35 Mostly Cloudy 52 11 41 5 67 67 NW 10 17 30.02 1017 10 16.0934 0 0
2:55 pm 14:55 Partly Cloudy 50 10 41 5 71 71 NW 10 17 30.05 1017 10 16.0934 0 0
3:15 pm 15:15 Mostly Cloudy 50 10 41 5 71 71 NW 9 15 30.06 1018 10 16.0934 0 0
3:35 pm 15:35 Mostly Cloudy 50 10 41 5 71 71 NW 14 22 30.07 1018 10 16.0934 0 0
3:55 pm 15:55 Partly Cloudy 50 10 41 5 71 71 WNW 10 17 30.07 1018 10 16.0934 0 0
4:15 pm 16:15 Partly Cloudy 50 10 39 4 67 67 NNW 8 13 30.08 1018 10 16.0934 0 0
4:35 pm 16:35 Partly Cloudy 48 9 39 4 71 71 NW 10 17 30.07 1018 10 16.0934 0 0
4:55 pm 16:55 Sunny 46 8 39 4 76 76 NW 7 11 30.09 1019 10 16.0934 0 0
5:15 pm 17:15 Clear 46 8 39 4 76 76 NW 8 13 30.09 1019 10 16.0934 0 0
5:35 pm 17:35 Clear 46 8 39 4 76 76 N 6 9 30.1 1019 10 16.0934 0 0
5:55 pm 17:55 Clear 46 8 39 4 76 76 N 6 9 30.09 1019 10 16.0934 0 0
6:15 pm 18:15 Clear 46 8 39 4 76 76 N 6 9 30.09 1019 10 16.0934 0 0
6:35 pm 18:35 Clear 46 8 39 4 76 76 NNE 7 11 30.09 1019 10 16.0934 0 0
6:55 pm 18:55 Clear 45 7 37 3 76 76 NNE 3 6 30.11 1020 10 16.0934 0 0
7:15 pm 19:15 Clear 45 7 37 3 76 76 NNE 5 7 30.11 1020 10 16.0934 0 0
7:35 pm 19:35 Clear 43 6 37 3 81 81 NNE 5 7 30.11 1020 10 16.0934 0 0
7:55 pm 19:55 Clear 45 7 37 3 76 76 NNE 6 9 30.11 1020 10 16.0934 0 0
8:15 pm 20:15 Clear 43 6 37 3 81 81 N 6 9 30.1 1019 10 16.0934 0 0
8:35 pm 20:35 Clear 43 6 37 3 81 81 NNE 8 13 30.1 1019 10 16.0934 0 0
8:55 pm 20:55 Clear 43 6 37 3 81 81 NNE 8 13 30.1 1019 10 16.0934 0 0
9:15 pm 21:15 Clear 43 6 37 3 81 81 NNE 7 11 30.11 1020 10 16.0934 0 0
9:35 pm 21:35 Clear 43 6 37 3 81 81 NE 5 7 30.11 1020 10 16.0934 0 0
9:55 pm 21:55 Clear 41 5 37 3 87 87 ENE 8 13 30.11 1020 10 16.0934 0 0
10:15 pm 22:15 Clear 41 5 37 3 87 87 ENE 6 9 30.11 1020 10 16.0934 0 0
10:35 pm 22:35 Clear 41 5 36 2 81 81 NE 6 9 30.11 1020 10 16.0934 0 0
10:55 pm 22:55 Clear 41 5 36 2 81 81 NE 5 7 30.11 1020 10 16.0934 0 0
11:15 pm 23:15 Clear 41 5 36 2 81 81 NE 3 6 30.11 1020 10 16.0934 0 0
11:35 pm 23:35 Clear 39 4 36 2 87 87 NNE 5 7 30.1 1019 10 16.0934 0 0
11:55 pm 23:55 Clear 37 3 36 2 93 93 Calm 30.1 1019 10 16.0934 0 0

Powered by AerisWeather